Location: Buffign�court
(47.8126°N, 6.0176°E)
Time: 12:52:39
(UTC+00:00)

Cosmos 2333 Rocket - Pass Details

Date: 16 June 2021
Orbit: 841 x 861 km, 70.8° (Epoch: 31 July)

Event Time Altitude Azimuth Distance (km) Brightness Sun altitude
Exits shadow 21:09:00 13° 165° (SSE) 2,251 3.8 -11.5°
Maximum altitude 21:13:22 34° 106° (ESE) 1,383 3.0 -11.9°
Drops below altitude 10° 21:18:26 10° 43° (NE) 2,494 4.8 -12.3°
Sets 21:21:05 0° 35° (NE) 3,431 5.7 -12.6°
